Probability
43 46 49 50 49 48 48 47 47 43 34 25 19 14 8 5 3 1 0 0 0 0 0 0 0 0 0 0 0 0 0 0 0 0 0 0 0 0 0 0 0 0 0
50 52 54 54 52 51 51 51 49 45 37 27 20 14 10 7 4 1 0 0 1 2 1 0 0 0 0 0 0 0 0 0 0 0 0 0 0 0 0 0 0 0 0
57 59 61 59 55 54 56 56 51 45 38 29 19 13 10 8 6 3 2 3 5 6 4 1 0 0 0 0 0 0 0 0 0 0 0 0 0 0 0 0 0 0 0
59 63 65 61 57 56 57 57 51 42 36 29 20 12 9 8 8 7 6 7 7 8 6 3 1 0 0 0 0 0 0 0 0 0 0 0 0 0 0 0 0 0 0
59 63 65 62 57 55 55 53 49 40 32 28 21 14 10 8 8 9 9 8 7 6 6 4 1 0 0 0 0 0 0 0 0 0 0 0 0 0 0 0 0 0 0
58 61 62 60 56 53 52 50 47 40 32 27 22 16 12 9 8 10 10 9 7 6 6 6 3 1 1 0 0 0 0 0 0 0 0 0 0 0 0 0 0 0 0
57 59 60 59 56 52 49 48 46 40 33 29 24 18 13 9 7 8 9 11 11 8 7 7 5 3 2 1 1 0 0 0 0 0 0 0 0 0 0 0 0 0 0
56 57 58 58 56 52 49 48 46 41 35 31 25 19 13 7 5 6 7 9 10 9 7 7 6 4 4 4 3 1 0 0 0 0 0 0 0 0 0 0 0 0 0
55 57 57 55 54 51 49 49 49 44 37 30 23 17 10 6 4 4 5 5 6 7 8 8 7 6 5 5 4 3 1 0 0 0 0 0 0 0 0 0 0 0 0
53 55 55 52 51 51 50 50 51 47 38 30 24 18 12 7 4 3 3 2 3 7 9 9 7 6 6 5 4 3 2 1 0 0 0 0 0 0 0 0 0 0 0
47 50 51 48 48 49 51 54 52 47 41 35 31 27 20 13 7 5 4 4 5 7 8 7 5 6 6 6 5 4 3 2 1 0 0 0 0 0 0 0 0 0 0
40 44 47 46 46 48 52 55 52 47 43 41 40 35 28 20 14 10 9 8 7 6 4 4 4 6 8 9 9 8 6 4 2 1 0 0 0 0 1 1 1 1 1
39 42 44 45 47 48 51 52 51 48 44 41 40 36 31 25 20 17 15 12 9 5 4 4 6 9 11 12 13 12 10 6 4 3 2 2 2 2 3 3 2 2 2
40 40 41 43 46 47 47 46 47 45 40 37 35 32 30 28 23 19 17 15 11 7 5 5 7 10 12 13 13 12 9 6 5 4 4 6 7 6 5 4 4 4 4
41 39 38 39 43 44 43 42 42 40 37 36 34 31 28 28 25 20 18 17 14 11 8 6 7 8 10 10 9 8 7 5 4 4 5 7 7 6 5 3 4 5 5
40 39 38 38 39 41 40 39 37 35 36 38 38 33 27 24 23 20 18 18 17 13 8 6 5 4 5 5 4 4 5 5 4 4 5 6 5 4 2 2 2 3 3
37 38 38 37 38 38 36 34 33 33 35 38 39 34 26 21 18 16 14 14 15 12 9 8 6 4 3 1 1 2 3 4 4 4 4 4 4 4 3 1 0 1 1
32 33 34 36 36 34 32 30 30 30 32 35 35 31 25 19 14 11 8 9 11 11 11 10 8 6 3 1 0 0 1 2 3 3 3 3 4 4 4 2 0 0 0
30 31 33 35 35 33 31 30 28 26 27 29 28 25 22 17 12 9 7 7 8 10 11 10 10 7 5 2 1 0 1 1 1 1 1 2 3 3 2 1 0 0 0
31 32 34 36 35 32 31 30 27 23 22 22 22 21 19 15 12 10 8 7 8 9 10 10 10 9 6 4 2 1 2 2 1 1 1 1 1 1 0 0 0 0 0
32 33 35 36 34 32 30 27 23 20 19 19 20 19 16 13 12 10 8 7 8 9 9 10 10 10 7 5 3 1 2 3 3 3 3 1 0 0 0 0 0 0 0
31 31 32 31 29 29 28 23 19 18 19 20 20 17 14 13 12 10 8 7 7 7 8 9 9 8 6 5 3 1 1 3 4 5 5 3 1 0 0 0 0 0 0
30 29 28 27 26 26 25 20 16 17 19 19 17 14 12 12 11 10 9 7 6 6 6 6 5 5 4 4 2 1 0 1 3 4 4 2 1 0 0 0 0 0 0
29 28 28 27 27 26 21 16 14 15 15 16 14 11 10 9 8 7 7 6 6 5 4 3 3 2 2 2 1 0 0 0 1 1 1 1 0 0 0 0 0 0 0
28 27 27 27 26 24 18 15 14 13 13 13 12 9 7 6 5 4 4 3 3 3 2 2 1 1 1 1 0 0 0 0 0 0 0 0 0 0 0 0 0 0 0
29 26 25 24 22 20 17 15 14 13 12 12 11 9 7 4 2 2 2 2 1 1 1 1 0 0 0 0 0 0 0 0 0 0 0 0 0 0 0 0 0 0 0
Wind_Speed
12 12 13 13 13 12 12 12 12 10 8 6 5 5 5 4 4 4 5 6 6 6 5 4 3 4 3 4 4 3 2 1 2 2 2 2 1 1 2 3 4 5 5
11 12 12 12 13 14 13 13 12 11 10 7 5 4 4 4 4 4 5 6 6 6 6 5 4 4 4 4 4 3 2 1 2 3 2 2 3 2 1 2 3 4 4
18 16 15 14 14 15 15 14 13 12 10 8 5 4 3 2 2 3 4 5 7 6 5 6 5 5 4 4 4 4 4 3 1 2 4 3 2 2 2 2 3 4 4
15 15 15 15 16 15 14 12 12 11 10 10 8 8 7 6 6 5 4 5 6 6 6 6 6 5 4 4 4 4 3 4 2 1 1 3 4 3 1 2 1 2 4
16 17 17 16 14 13 13 11 11 11 10 10 11 9 7 5 3 4 5 6 5 6 6 6 6 5 4 5 5 4 4 3 3 3 2 1 1 2 3 1 2 1 2
15 15 13 11 10 11 11 11 11 11 11 11 11 11 10 8 7 6 6 5 4 4 6 6 6 6 5 5 5 5 5 4 4 3 3 3 2 2 3 3 2 2 3
15 13 13 13 13 13 13 12 12 11 11 11 11 11 10 10 10 8 8 7 5 4 7 6 5 5 5 5 5 5 4 5 4 4 3 3 3 3 3 3 2 2 2
14 15 16 15 14 14 13 13 13 12 12 12 11 10 10 8 7 8 7 7 6 6 6 7 7 6 6 6 5 4 4 4 4 5 4 3 3 3 3 4 3 1 1
14 14 14 14 13 14 14 14 14 12 11 11 10 9 9 9 8 7 6 5 5 6 7 7 7 7 6 6 5 4 4 4 4 4 4 3 2 2 3 3 4 4 2
13 12 12 13 12 12 11 11 12 12 10 10 10 9 9 9 8 7 8 7 7 6 7 8 7 7 7 6 5 4 4 5 4 3 4 3 2 2 2 2 2 3 4
12 12 11 11 10 9 10 10 10 10 9 10 9 9 8 8 8 8 8 8 7 7 7 7 7 7 7 6 6 5 5 5 5 4 4 4 3 2 2 2 2 2 3
9 10 10 10 9 9 9 9 9 9 10 9 9 9 8 8 8 8 8 8 8 8 8 7 7 7 7 6 7 7 6 6 6 5 4 4 3 3 3 2 2 2 3
7 8 8 9 9 9 9 8 8 8 8 8 9 8 8 8 8 8 8 8 8 7 7 8 8 7 7 7 7 7 6 7 6 6 5 5 4 4 3 3 2 2 2
7 8 7 7 8 8 8 8 7 7 7 7 8 9 9 9 8 7 7 7 7 7 7 7 7 7 7 7 7 7 6 6 6 6 6 5 6 5 4 3 3 2 2
6 7 7 6 6 6 6 6 6 6 6 7 8 8 8 7 7 7 6 6 6 7 6 6 5 5 5 6 6 6 6 6 6 5 5 6 7 7 5 4 3 3 2
7 7 7 6 6 6 6 5 5 6 6 7 7 6 6 6 7 7 6 6 6 5 5 6 5 5 5 6 8 7 5 5 5 5 5 5 6 6 6 6 6 5 4
6 6 7 6 6 6 6 6 5 5 6 6 6 6 6 7 6 7 6 6 5 5 5 5 4 4 4 7 8 7 5 4 5 5 4 4 4 5 3 4 4 4 5
5 5 5 5 4 4 4 5 5 5 5 5 5 6 6 6 6 6 6 5 4 4 4 4 4 3 4 6 7 6 4 3 4 5 5 5 4 4 4 3 2 2 3
5 5 5 5 4 4 5 5 5 4 4 4 5 5 6 7 6 6 5 4 4 4 3 3 4 4 3 5 6 5 3 2 3 4 4 5 4 5 6 4 3 2 3
4 5 5 5 5 4 5 6 5 4 4 3 4 4 5 6 6 6 5 3 3 3 3 2 2 3 2 3 5 6 3 2 2 2 2 4 5 5 5 4 4 4 4
5 6 7 6 4 4 6 6 5 4 3 4 4 4 4 5 5 5 4 4 4 4 3 2 1 1 1 2 4 5 3 3 2 2 2 2 4 4 4 4 4 5 4
6 6 7 5 4 4 6 5 4 3 4 5 5 4 4 4 4 5 5 5 5 4 3 2 1 0 0 0 2 3 4 3 2 2 1 1 3 2 1 2 2 2 1
6 5 6 6 4 3 4 5 3 3 5 5 5 5 5 4 4 5 5 5 4 3 2 2 1 0 1 1 1 2 3 3 2 1 3 3 2 2 2 1 0 1 1
6 6 7 6 4 3 4 3 4 5 6 6 5 5 5 5 5 4 4 4 3 3 2 2 1 0 1 1 1 0 1 2 2 1 3 5 5 4 3 3 2 1 1
6 6 7 6 5 4 4 4 4 6 6 6 6 5 5 5 6 6 5 4 3 2 3 2 2 2 1 1 0 2 2 2 3 3 3 3 3 3 3 3 2 2 2
6 6 6 6 5 5 5 4 4 6 7 6 5 4 4 5 6 7 7 11 9 10 9 7 5 4 4 5 6 6 6 6 7 7 5 4 3 3 3 3 3 3 2
Wind_Direction
185 174 171 169 169 167 167 168 166 167 161 158 160 158 165 170 170 181 179 175 172 166 164 170 166 162 157 161 152 138 133 128 119 84 29 357 354 201 202 189 183 197 198
174 173 172 170 171 173 173 171 172 171 171 171 165 161 158 170 176 183 185 182 178 175 177 173 171 171 159 159 160 147 137 153 140 129 105 17 350 332 243 199 192 196 191
178 177 177 177 174 177 178 178 177 175 174 163 148 142 133 139 170 185 187 191 186 184 178 174 173 175 166 171 176 165 154 168 195 158 146 150 211 288 315 252 205 191 190
180 178 179 178 180 181 179 175 175 175 173 166 168 169 176 184 192 185 187 190 189 187 180 175 178 180 175 178 185 176 165 155 176 210 189 170 161 158 296 322 290 216 203
182 182 184 182 179 176 175 174 174 177 176 177 179 178 185 187 174 173 180 188 192 191 185 180 181 183 184 187 188 177 176 166 168 179 174 150 137 143 150 245 295 295 243
186 185 181 171 171 173 175 175 176 181 182 183 183 184 184 179 176 183 185 191 193 195 191 187 186 187 186 188 189 187 183 183 178 177 173 167 166 185 169 194 229 246 260
180 177 173 173 176 177 179 180 181 187 186 187 190 191 188 184 188 188 190 191 192 197 199 192 187 190 193 189 182 182 184 184 182 188 192 190 191 178 167 167 200 234 270
178 179 180 179 179 180 180 180 185 189 188 190 192 191 188 187 194 194 191 196 198 198 192 188 191 194 191 190 182 182 190 185 190 199 196 197 206 186 176 171 164 181 289
175 178 179 179 179 182 183 183 186 189 191 191 188 190 189 191 194 193 191 194 198 197 191 188 192 196 193 189 182 190 196 188 195 200 199 203 215 202 190 175 165 162 194
172 174 176 178 181 181 181 182 186 191 189 188 190 194 193 193 193 193 195 195 198 199 189 192 193 194 194 189 183 191 197 190 200 200 201 213 215 209 194 183 180 170 171
174 173 173 176 176 173 173 180 186 187 189 190 190 192 192 192 192 196 198 196 194 192 190 192 193 194 194 190 187 194 191 196 208 211 206 220 213 205 204 191 181 179 169
167 167 165 163 165 169 173 179 184 188 192 191 188 191 189 189 193 198 196 191 192 192 190 190 191 194 195 190 189 199 197 200 208 212 207 217 211 204 203 194 200 202 193
149 149 150 158 166 171 174 179 184 189 189 187 186 189 190 193 197 199 196 192 191 188 184 182 185 193 196 194 198 200 201 205 207 204 204 211 201 211 212 200 201 209 205
151 147 151 163 172 174 174 176 182 186 186 186 189 194 197 198 198 194 191 188 186 183 185 187 190 192 192 195 201 198 201 205 208 206 206 206 202 204 203 204 206 199 195
144 151 156 160 161 162 171 174 181 184 185 185 191 199 198 194 189 185 181 180 182 184 180 180 187 191 191 200 199 197 200 202 210 214 212 212 210 205 202 201 201 191 192
151 156 154 149 153 159 166 171 183 186 177 182 194 194 188 183 182 178 171 170 176 177 173 180 184 189 204 205 201 199 204 201 205 214 218 220 215 209 207 207 201 190 190
150 155 156 158 162 166 167 173 179 171 174 184 190 186 181 175 178 174 165 170 172 174 182 184 180 192 206 200 199 200 201 203 207 208 211 223 212 194 197 215 220 224 220
152 154 151 150 154 156 158 161 153 156 166 174 180 177 170 164 161 158 164 171 169 173 182 180 177 182 201 191 195 199 201 204 210 208 208 209 210 198 189 196 210 240 247
146 145 145 141 134 139 144 135 134 141 146 158 165 167 159 154 153 161 168 168 163 168 168 170 173 175 199 197 195 185 178 196 216 216 204 194 200 212 198 185 204 242 268
105 112 108 101 106 122 127 127 133 132 141 151 147 145 145 150 155 160 154 142 143 147 142 139 160 170 193 200 190 177 167 187 209 209 202 199 200 209 201 192 197 230 252
101 106 104 102 106 111 118 126 131 143 150 133 120 122 135 143 143 139 133 127 124 119 121 124 121 146 193 204 187 177 171 184 189 196 208 209 186 191 197 191 200 227 231
104 105 103 101 100 106 115 120 136 147 127 121 118 118 121 130 130 126 127 127 128 125 132 130 113 69 197 178 181 174 186 183 168 194 196 173 155 163 167 170 211 232 227
111 108 110 104 92 94 111 125 131 120 114 112 114 113 107 101 114 124 127 127 130 135 143 137 136 350 358 8 123 166 181 177 154 131 121 110 103 95 78 81 114 106 111
97 101 100 98 88 80 88 113 117 113 113 113 112 108 106 99 90 92 104 116 122 135 137 138 148 110 19 3 12 93 132 137 127 86 84 82 77 79 66 56 57 78 112
95 99 101 98 89 79 74 82 102 106 106 107 108 108 106 105 92 78 65 82 74 98 127 129 133 134 116 324 87 123 103 122 132 116 88 75 72 70 60 51 45 48 46
99 96 94 92 84 79 73 74 96 111 115 110 106 108 108 105 105 103 82 59 66 66 68 71 88 77 77 78 84 87 83 88 102 96 85 76 69 68 64 57 44 43 40